STARLINK-1061

Last updated on Thu Dec 12 2019 00:02:04 GMT+0000 (Coordinated Universal Time)

1 44766U 19074BF 19345.58335648 -.00066072 00000-0 -17707-2 0 9999 2 44766 53.0059 23.8262 0001208 66.2604 359.2414 15.37574515 4701

Satellite not in orbit